Weather History for Marathon, FL

Change the Weather History Date:

Tuesday, January 1, 2013

  Actual Average Record
Temperature  
Mean Temperature 76 °F 70 °F  
Max Temperature 80 °F 75 °F 86 °F (2008)
Min Temperature 72 °F 64 °F 51 °F (2001)
Degree Days  
Heating Degree Days 0 1  
Month to date heating degree days 0 1  
Since 1 July heating degree days 6 22  
Cooling Degree Days 11 6  
Month to date cooling degree days 11 6  
Year to date cooling degree days 11 6  
Growing Degree Days 26 (Base 50)    
Moisture  
Dew Point 62 °F    
Average Humidity 63    
Maximum Humidity 73    
Minimum Humidity 53    
Precipitation  
Precipitation 0.00 in 0.06 in 0.03 in (2004)
Month to date precipitation 0.00 0.06  
Year to date precipitation 0.00 0.06  
Snow  
Snow 0.00 in - - ()
Month to date snowfall 0.0  
Since 1 July snowfall 0.0  
Snow Depth 0.00 in    
Sea Level Pressure  
Sea Level Pressure 30.10 in    
Wind  
Wind Speed 6 mph (ESE)    
Max Wind Speed 12 mph    
Max Gust Speed 17 mph    
Visibility 10 miles    
Events      
T = Trace of Precipitation, MM = Missing Value Source: NWS Daily Summary

Daily Weather History Graph

Daily Weather History Graph

Search for Another Location

Airport:

Trip Planner

Search our weather history database for the weather conditions in past years. The results will help you decide how hot, cold, wet, or windy it might be!

Date:

Astronomy

Jan. 01, 2013 Rise Set
Actual Time 7:08 AM EST 5:47 PM EST
Civil Twilight 6:43 AM EST 6:12 PM EST
Nautical Twilight 6:15 AM EST 6:40 PM EST
Astronomical Twilight 5:47 AM EST 7:08 PM EST
Moon 9:47 PM EST (1/1) 9:46 AM EST (1/1)
Length of Visible Light 11h 28m
Length of Day
10h 38m
Waning Gibbous, 83% of the Moon is Illuminated
Jan 1
Waning Gibbous
Jan 4
Last Quarter
Jan 11
New
Jan 18
First Quarter
Jan 26
Full

Hourly Weather History & Observations

Time (EST) Temp. Heat Index Dew Point Humidity Pressure Visibility Wind Dir Wind Speed Gust Speed Precip Events Conditions
12:53 AM 72.0 °F - 57.0 °F 59% 30.16 in 10.0 mi ESE 6.9 mph - N/A   Mostly Cloudy
1:53 AM 72.0 °F - 57.0 °F 59% 30.14 in 10.0 mi SE 8.1 mph - N/A   Mostly Cloudy
2:53 AM 73.0 °F - 59.0 °F 61% 30.14 in 10.0 mi ESE 5.8 mph - N/A   Overcast
3:53 AM 73.0 °F - 55.9 °F 55% 30.14 in 10.0 mi ESE 5.8 mph - N/A   Overcast
4:53 AM 73.0 °F - 57.9 °F 59% 30.13 in 10.0 mi East 8.1 mph - N/A   Overcast
5:53 AM 73.0 °F - 57.0 °F 57% 30.13 in 10.0 mi East 4.6 mph - N/A   Overcast
6:53 AM 73.0 °F - 57.9 °F 59% 30.12 in 10.0 mi ESE 6.9 mph - N/A   Overcast
7:53 AM 73.0 °F - 57.9 °F 59% 30.12 in 10.0 mi SE 8.1 mph - N/A   Scattered Clouds
8:53 AM 73.9 °F - 60.1 °F 62% 30.14 in 10.0 mi ESE 6.9 mph - N/A   Mostly Cloudy
9:53 AM 77.0 °F - 62.1 °F 60% 30.15 in 10.0 mi Variable 5.8 mph - N/A   Partly Cloudy
10:53 AM 79.0 °F - 62.1 °F 56% 30.15 in 10.0 mi SE 5.8 mph - N/A   Clear
11:53 AM 79.0 °F - 62.1 °F 56% 30.13 in 10.0 mi SE 8.1 mph - N/A   Clear
12:53 PM 80.1 °F 81.5 °F 63.0 °F 56% 30.09 in 10.0 mi SE 6.9 mph - N/A   Clear
1:53 PM 80.1 °F 81.9 °F 64.9 °F 60% 30.06 in 10.0 mi SE 8.1 mph - N/A   Clear
2:53 PM 79.0 °F - 64.9 °F 62% 30.05 in 10.0 mi SE 6.9 mph - N/A   Clear
3:53 PM 78.1 °F - 64.9 °F 64% 30.04 in 10.0 mi SE 6.9 mph - N/A   Partly Cloudy
4:53 PM 75.9 °F - 64.9 °F 69% 30.04 in 10.0 mi SE 3.5 mph - N/A   Clear
5:53 PM 73.9 °F - 64.9 °F 73% 30.04 in 10.0 mi SE 5.8 mph - N/A   Partly Cloudy
6:53 PM 73.9 °F - 64.9 °F 73% 30.05 in 10.0 mi SE 4.6 mph - N/A   Clear
7:53 PM 73.0 °F - 64.9 °F 76% 30.06 in 10.0 mi ESE 4.6 mph - N/A   Clear
8:53 PM 73.0 °F - 64.9 °F 76% 30.06 in 10.0 mi ESE 5.8 mph - N/A   Clear
9:53 PM 73.0 °F - 64.9 °F 76% 30.07 in 10.0 mi ESE 3.5 mph - N/A   Clear
10:53 PM 73.0 °F - 64.9 °F 76% 30.07 in 10.0 mi ESE 4.6 mph - N/A   Clear
11:53 PM 73.0 °F - 64.9 °F 76% 30.07 in 10.0 mi Calm Calm - N/A   Partly Cloudy